FENGYUN 1C DEB, 31919

Orbit data source: Space-Track

FENGYUN 1C DEB, 31919 is space debris in SSO originally from a launch on Mon, 10 May 1999 UTC launched from the Taiyaun Space Center, China (TSC). Fengyun 1C debris stems from the Chinese weather satellite Fengyun-1C, which was intentionally destroyed by a Chinese anti-satellite missile in 2007. This event dramatically increased the amount of space debris, with thousands of trackable fragments posing hazards to satellites and human spaceflight. The Fengyun 1C debris cloud has become a focal point in discussions about space sustainability and the need for international regulations to prevent the creation of new debris.

Loading next visibility...
Identifier
31919, 1999-025CLW
Orbit
SSO
Country
Flag of CNCN / PRC
Related business
Manufacturer
Unknown
Mission
Spacecraft
Bus & Motor
Unknown
Mass
Unknown
Launch date (UTC)
1999-05-10 (27 years ago)
Launch vehicle
Unknown
Launch site
Taiyaun Space Center, China (TSC)
Object type
Payload
Rocket body
Debris
Shape & HBR
Unknown shape, 0.1 m
Radar Cross Section
Small (<0.1 m²)

Expand to show TLE details & history
Last TLE update: 12 hours ago

TLE from 12 hours ago
0 FENGYUN 1C DEB
1 31919U 99025CLW 26238.30074368  .00001211  00000-0  33037-3 0  9994
2 31919  99.1344  44.9723 0101733 164.4947 316.8744 14.46425065  7900
Epoch: 2026-08-26T07:13Z
TLE epoch observation values (Epoch: 2026-08-26T07:13:04.253Z)
Latitude
58.32727°
Longitude
157.17229°
Altitude
694.659 km
Speed
7.542 km/s
True Right ascension
15h 59m 58s
True Declination
58° 10' 19"
Sunlit
Object was in daylight at epoch
Visualization orbit readout
Latitude
Unknown
Longitude
Unknown
Altitude
Unknown
Speed
Unknown
Apparent Right ascension
Unknown
Apparent Declination
Unknown
Sunlit
N/A
Visualization observer readout
Local Sidereal Time
10:15:14
Azimuth
Unknown
Elevation
Unknown
Doppler factor
Unknown
Orbital elements
Apogee altitude
806.852 km
Perigee altitude
662.134 km
Semi-major axis
7,112.63 km
Eccentricity
0.01017
Inclination
99.1344°
RAAN
44.9723°
Arg. of periapsis
164.4947°
True anomaly
316.07004°
Mean anomaly
316.8744°
Eccentric anomaly
316.47297°
Mean motion
3.61824 °/min
Orbital period
99.5 mins
BSTAR
0.00033037
Loading maneuver chart data...
Computing Atmospheric mass density...
Loading historical data...
Loading historical data...
Loading historical data...
Loading historical data...
Loading historical data...
Loading historical data...
Loading historical data...

Documentation

Showing up to 5 results
|